Meteo Giornale » Osservazioni meteo Canada » Windsor Ont

ore: 06:00 - Osservazioni Meteo Windsor Ont
Lat. 42° 16' N Lon. 82° 58' W Alt. 190 metri s.l.m.

sereno

23 °C

Sereno

Temp. 24 Ore

21 °C

28 °C

Ovest/Sud-Ovest

13 Km/h

Dew point 21 °C

Umidità 88 %

Visibilità  14 Km

Il sole sorge alle ore 06:57

Il sole tramonta alle ore 20:06

Data e Ora Cielo e Fenomeni T °C DP °C Um. % Pres. hPa Vis. km Vento km/h
Oggi h: 06:00 sereno Sereno 23 21 88 1014 14 O/SO 13
Oggi h: 05:00 molto_nuvoloso Molto Nuvoloso 23 22 94 1014 14 O/SO 13
Oggi h: 04:00 coperto Coperto 23 22 94 1014 14 O/SO 11.1
Oggi h: 03:00 molto_nuvoloso Molto Nuvoloso 24 22 88 1014 14 O/SO 11.1
Oggi h: 02:00 coperto Coperto 24 22 88 1014 14 O/SO 11.1
Oggi h: 01:00 coperto Coperto 24 22 88 1014 14 SO 11.1
Oggi h: 00:00 coperto Coperto 24 21 83 1014 14 S/SO 13
Ieri h: 23:00 coperto Coperto 23 20 83 1014 14 S 11.1
Ieri h: 22:00 coperto Coperto 22 20 88 1015 14 S 9.3
Ieri h: 21:00 coperto Coperto 22 20 88 1014 14 S/SE 11.1
Ieri h: 20:00 coperto Coperto 23 21 88 1014 14 S 11.1
Ieri h: 19:25 molto_nuvoloso Molto Nuvoloso 24 21 83 1015 14 S/SE 13
Ieri h: 19:09 coperto_pioggia Pioggia 24 21 83 1015 14 S 11.1
Ieri h: 19:02 coperto Coperto 24 21 83 1015 14 S/SO 13
Ieri h: 19:00 coperto_pioggia Pioggia 24 22 88 1015 14 S/SO 13
Ieri h: 18:00 coperto_pioggia Pioggia 25 22 83 1016 14 SO 18.5
Ieri h: 17:37 coperto_pioggia Pioggia 26 21 73 1016 14 S/SO 20.3
Ieri h: 17:00 molto_nuvoloso Molto Nuvoloso 28 21 65 1016 14 S 14.8
Ieri h: 16:00 molto_nuvoloso Molto Nuvoloso 28 22 69 1016 13 SE 11.1
Ieri h: 15:00 molto_nuvoloso Molto Nuvoloso 28 19 58 1016 13 N 5.5
Ieri h: 14:00 nuvoloso Nuvoloso 27 21 69 1017 14 N 5.5
Ieri h: 13:43 nuvoloso Nuvoloso 26 22 78 1016 14 N 5.5
Ieri h: 13:00 coperto_pioggia Pioggia 26 21 73 1018 14 O 13
Ieri h: 12:47 coperto_pioggia Pioggia 26 21 73 1018 14 O 13
Ieri h: 12:00 coperto Coperto 26 21 73 1018 14 O/SO 11.1
Ieri h: 11:00 coperto Coperto 24 21 83 1017 14 O/SO 13
Ieri h: 10:00 molto_nuvoloso Molto Nuvoloso 24 21 83 1017 14 S/SO 11.1
Ieri h: 09:00 coperto Coperto 23 20 83 1017 14 S/SO 9.3
Ieri h: 08:27 molto_nuvoloso Molto Nuvoloso 22 20 88 1017 14 S 9.3
Ieri h: 08:24 coperto_pioggia Pioggia Foschia 22 21 94 1017 10 S 7.4
Ieri h: 08:16 coperto_pioggia Pioggia Foschia 22 20 88 1017 6 N 3.7
Ieri h: 08:15 foschia Foschia 22 20 88 1017 6 N 0
Ieri h: 08:00 coperto Coperto 22 20 88 1017 14 N 5.5
Ieri h: 07:00 coperto Coperto 21 20 94 1017 14 N 5.5